Location: Unspecified
(0.0000°N, 0.0000°E)
Time: 08:15:44
(UTC+00:00)

O/OREOS (USA 219) - Pass Details

Date: 23 May 2021
Orbit: 621 x 646 km, 72.0° (Epoch: 22 May)

Event Time Altitude Azimuth Distance (km) Brightness Sun altitude
Exits shadow 04:04:57 41° 353° (N) 899 ? -26.0°
Drops below altitude 10° 04:07:57 10° 7° (N) 1,980 ? -25.3°
Sets 04:10:12 0° 10° (N) 2,885 ? -24.8°
